Location: Buch
(49.7331°N, 12.1098°E)
Time: 09:46:00
(UTC+00:00)

Cosmos 44 Rocket - Pass Details

Date: 12 May 2021
Orbit: 636 x 754 km, 65.1° (Epoch: 13 June)

Event Time Altitude Azimuth Distance (km) Brightness Sun altitude
Rises 22:21:56 0° 321° (NW) 3,216 7.8 -21.1°
Reaches altitude 10° 22:24:27 10° 328° (NNW) 2,287 6.9 -21.2°
Maximum altitude 22:29:30 45° 41° (NE) 1,012 4.3 -21.4°
Enters shadow 22:32:45 20° 105° (ESE) 1,659 5.0 -21.4°
